FW9441 Weather Reports


time (UTC)temp
C
wind
direction
speed
KPH
gust
KPH
rain 1hr
cm
rain 24hr
cm
rain mn
cm
humidity
%
barometer
mb
20260506013055 17 258 3.2 9.7 0.00 0.00 0.00 73 1015.9
20260506011536 18 288 3.2 11.3 0.00 0.00 0.00 72 1015.6
20260506010035 18 262 4.8 11.3 0.00 0.00 0.00 72 1015.6
20260506004533 18 276 4.8 12.9 0.00 0.00 0.00 71 1015.7
20260506003039 18 297 4.8 8.0 0.00 0.00 0.00 71 1015.5
20260506001539 19 334 3.2 12.9 0.00 0.00 0.00 72 1015.4
20260506000036 19 299 3.2 11.3 0.00 0.00 0.00 71 1015.3
20260505234537 19 290 3.2 12.9 0.00 0.00 0.00 70 1015.3
20260505233037 20 222 3.2 11.3 0.00 0.00 0.00 70 1015.3
20260505231538 20 254 3.2 14.5 0.00 0.00 0.00 69 1015.4
20260505230051 20 262 4.8 14.5 0.00 0.00 0.00 69 1015.5
20260505224541 20 244 6.4 12.9 0.00 0.00 0.00 71 1015.5
20260505223052 20 246 3.2 9.7 0.00 0.00 0.00 70 1015.4
20260505221538 20 283 4.8 11.3 0.00 0.00 0.00 70 1015.5
20260505220042 20 276 4.8 12.9 0.00 0.00 0.00 70 1015.6
20260505214535 20 290 3.2 17.7 0.00 0.00 0.00 69 1015.6
20260505213049 20 85 3.2 16.1 0.00 0.00 0.00 70 1015.6
20260505211537 20 240 4.8 11.3 0.00 0.00 0.00 70 1015.6
20260505210038 20 216 4.8 12.9 0.00 0.00 0.00 65 1015.5
20260505204537 20 215 4.8 9.7 0.00 0.00 0.00 65 1015.6
20260505203044 20 233 6.4 14.5 0.00 0.00 0.00 65 1015.7
20260505201538 20 191 3.2 11.3 0.00 0.00 0.00 65 1015.8
20260505200036 20 281 1.6 9.7 0.00 0.00 0.00 71 1015.8
20260505194533 19 76 3.2 9.7 0.00 0.00 0.00 68 1015.8
20260505193037 18 79 3.2 6.4 0.00 0.00 0.00 71 1015.7
20260505191537 18 253 0.0 9.7 0.00 0.00 0.00 76 1015.9
20260505190037 17 0 3.2 9.7 0.00 0.00 0.00 73 1015.9
20260505184540 17 25 0.0 6.4 0.00 0.00 0.00 73 1015.9
20260505183038 17 249 1.6 8.0 0.00 0.00 0.00 77 1015.9
20260505181539 17 217 1.6 6.4 0.00 0.00 0.00 75 1015.9
20260505180038 16 98 0.0 3.2 0.00 0.00 0.00 76 1015.9
20260505174535 16 0 0.0 1.6 0.00 0.00 0.00 76 1015.9
20260505173045 15 231 1.6 6.4 0.00 0.00 0.00 80 1016.0
20260505171538 15 0 0.0 3.2 0.00 0.00 0.00 80 1015.8
20260505170039 15 355 0.0 1.6 0.00 0.00 0.00 81 1015.8
20260505164548 15 257 0.0 3.2 0.00 0.00 0.00 82 1015.9
20260505163036 14 0 0.0 4.8 0.00 0.00 0.00 84 1016.0
20260505161534 14 256 0.0 1.6 0.00 0.00 0.00 85 1016.0
20260505153049 13 0 0.0 0.0 0.00 0.00 0.00 90 1016.1
20260505151543 12 0 0.0 0.0 0.00 0.00 0.00 93 1016.1
20260505124544 11 0 0.0 0.0 0.00 0.00 0.00 97 1015.5
20260505123041 11 0 0.0 0.0 0.00 0.00 0.00 97 1015.4
20260505121539 11 0 0.0 0.0 0.00 0.00 0.00 97 1015.4
20260505120038 11 0 0.0 0.0 0.00 0.00 0.00 97 1015.5
20260505114544 11 0 0.0 0.0 0.00 0.00 0.00 97 1015.3
20260505113036 11 0 0.0 0.0 0.00 0.00 0.00 96 1015.2
20260505111550 11 0 0.0 0.0 0.00 0.00 0.00 96 1015.1
20260505101535 11 0 0.0 0.0 0.00 0.00 0.00 96 1014.8
20260505100042 11 0 0.0 0.0 0.00 0.00 0.00 96 1014.7
20260505094531 11 0 0.0 0.0 0.00 0.00 0.00 95 1014.9
20260505093039 12 0 0.0 0.0 0.00 0.00 0.00 95 1015.0
20260505091551 12 0 0.0 0.0 0.00 0.00 0.00 95 1015.0
20260505090051 12 0 0.0 0.0 0.00 0.00 0.00 95 1015.1
20260505084538 12 0 0.0 0.0 0.00 0.00 0.00 95 1015.1
20260505083042 12 0 0.0 0.0 0.00 0.00 0.00 95 1015.1
20260505081552 12 0 0.0 0.0 0.00 0.00 0.00 95 1015.1
20260505080045 12 0 0.0 0.0 0.00 0.00 0.00 94 1015.3
20260505074552 12 0 0.0 0.0 0.00 0.00 0.00 94 1015.4
20260505073037 12 0 0.0 0.0 0.00 0.00 0.00 94 1015.4
20260505071536 12 0 0.0 0.0 0.00 0.00 0.00 94 1015.4
20260505070036 12 0 0.0 0.0 0.00 0.00 0.00 93 1015.4
20260505064538 12 0 0.0 0.0 0.00 0.00 0.00 93 1015.5
20260505063042 12 0 0.0 0.0 0.00 0.00 0.00 93 1015.4
20260505061555 12 0 0.0 0.0 0.00 0.00 0.00 92 1015.4
20260505060037 12 0 0.0 0.0 0.00 0.00 0.00 92 1015.5
20260505054536 12 0 0.0 0.0 0.00 0.00 0.00 91 1015.4
20260505053034 12 0 0.0 0.0 0.00 0.00 0.00 91 1015.3
20260505051538 12 0 0.0 0.0 0.00 0.00 0.00 90 1015.4
20260505041538 13 0 0.0 1.6 0.00 0.00 0.00 88 1015.0
20260505040038 13 255 0.0 3.2 0.00 0.00 0.00 87 1014.8
20260505034537 13 0 0.0 3.2 0.00 0.00 0.00 87 1014.6
20260505033046 13 164 1.6 8.0 0.00 0.00 0.00 87 1014.5
20260505031535 13 0 0.0 3.2 0.00 0.00 0.00 87 1014.3
20260505030039 13 268 1.6 6.4 0.00 0.00 0.00 86 1014.1
20260505024602 13 0 0.0 3.2 0.00 0.00 0.00 85 1014.2
20260505023040 14 34 0.0 3.2 0.00 0.00 0.00 85 1014.0
20260505021546 14 221 1.6 6.4 0.00 0.00 0.00 85 1013.9
20260505020044 14 206 0.0 8.0 0.00 0.00 0.00 84 1013.8
20260505014538 14 313 0.0 6.4 0.00 0.00 0.00 84 1013.8